KINEIS-5A

Last updated on Mon Sep 21 2026 00:02:54 GMT+0000 (Coordinated Universal Time)

1 62084U 24219D 26263.56730773 -.00002022 00000+0 -31284-3 0 9993 2 62084 97.9053 60.1287 0004617 19.2854 340.8528 14.72255264 97808
UTC large
Height (km)
Speed (km/s)
/
Latitude / Longitude
Inclination (degrees)
Orbital Period (minutes)
Azimuth
Elevation
Range (km)
Doppler Factor

Next 0 passes for location: London (51.5072 / 0.1276)

No passes found over London.
KINEIS-5A